+ View the NASA Portal
+ Center for Near-Earth Object Studies
IMPORTANT:
The SSD Announcement email list is now available. Major changes are coming in the near future, including possible hostname and/or URL changes. To be notified of such changes, subscribe to this email list.
Please visit
this page
for more details.
Don't show this message again
JPL Small-Body Database Browser
Search:
[
help
]
452921 (2006 VG148)
Classification:
Main-belt Asteroid
SPK-ID:
2452921
[
Ephemeris
|
Orbit Diagram
|
Orbital Elements
|
Mission Design
|
Physical Parameters
|
Discovery Circumstances
|
Close-Approach Data
]
[ show orbit diagram ]
Orbital Elements at Epoch 2458600.5 (2019-Apr-27.0) TDB
Reference:
JPL 12
(heliocentric ecliptic J2000)
Element
Value
Uncertainty (1-sigma)
Units
e
.2818272317251457
8.5896e-08
a
2.748787993145154
2.9636e-08
au
q
1.974104682437736
2.4209e-07
au
i
9.427158079211889
7.1757e-06
deg
node
81.46563624461955
4.818e-05
deg
peri
68.7103950640081
5.1813e-05
deg
M
227.4865993514721
2.3853e-05
deg
t
p
2459213.227811259360
(2020-Dec-29.72781126)
0.00011906
TDB
period
1664.601549532568
4.56
2.692e-05
7.37e-08
d
yr
n
.2162679712157486
3.4975e-09
deg/d
Q
3.523471303852571
3.7988e-08
au
Orbit Determination Parameters
# obs. used (total)
190
data-arc span
4755 days (13.02 yr)
first obs. used
2006-10-22
last obs. used
2019-10-29
planetary ephem.
DE431
SB-pert. ephem.
SB431-N16
condition code
0
norm. resid. RMS
.56832
source
ORB
producer
Otto Matic
solution date
2019-Nov-08 16:52:09
Additional Information
Earth MOID
= 1.00884 au
Jupiter MOID
= 1.59631 au
T_jup
= 3.269
[ show covariance matrix ]
[
Ephemeris
|
Orbit Diagram
|
Orbital Elements
|
Mission Design
|
Physical Parameters
|
Discovery Circumstances
|
Close-Approach Data
]
Physical Parameter Table
Parameter
Symbol
Value
Units
Sigma
Reference
Notes
absolute magnitude
H
16.4
n/a
MPO456158
452921 (2006 VG148)
Discovered 2006-Oct-22 by Mt. Lemmon Survey at Mount Lemmon
Reference:
Last Updated:
2016-01-04
[ show close-approach data ]
[
Ephemeris
|
Orbit Diagram
|
Orbital Elements
|
Mission Design
|
Physical Parameters
|
Discovery Circumstances
|
Close-Approach Data
]
2019-Dec-11 06:12 UT
(server date/time)
Site Manager:
Ryan S. Park
Webmaster
:
Alan B. Chamberlin